Theta_e
329 327 326 324 310 310 304 305 310 308 310 316 318 315 313 315 313 311 334 337 331 338 343 345 348 349 349 348 347 346 344 342 340 339 340 339 342 342 341 343 344 342 343 339 337 337 337 337 336
326 324 325 320 309 304 303 308 307 311 315 318 318 317 315 315 325 328 331 337 332 339 342 343 345 348 348 347 347 345 344 342 340 339 338 338 338 341 340 341 343 341 342 340 337 337 335 335 334
327 323 318 314 310 304 304 309 311 315 317 317 316 321 318 318 326 328 336 336 333 338 341 344 345 347 347 347 347 345 343 342 341 339 339 337 337 339 340 342 343 341 341 340 337 335 335 334 333
324 324 319 310 307 307 307 310 313 314 316 317 317 313 322 329 329 331 337 335 333 338 341 342 346 347 348 347 346 345 343 342 341 338 336 336 337 339 340 342 343 341 339 337 336 335 334 333 333
327 321 311 308 308 310 310 312 315 313 314 315 317 311 315 328 334 335 336 334 332 338 341 344 344 345 346 347 347 345 344 342 341 339 336 337 336 337 340 341 341 339 337 335 335 333 333 333 333
319 319 309 307 308 311 313 313 315 314 314 315 314 313 318 332 333 334 335 333 332 336 341 342 339 341 343 345 346 345 344 342 341 338 337 335 335 335 336 339 340 338 336 334 334 333 332 332 332
317 314 309 309 308 309 312 315 314 314 314 314 318 311 321 327 334 335 334 332 331 334 338 341 343 341 337 340 341 342 344 341 340 339 338 336 335 335 334 335 337 335 334 334 333 333 332 332 331
318 315 309 310 308 309 313 314 316 315 313 320 321 312 314 327 334 334 332 329 330 333 335 337 340 341 341 341 334 336 339 339 337 336 334 331 331 330 331 331 334 335 333 334 333 332 331 331 330
320 310 307 309 308 311 314 313 315 318 316 318 321 320 325 331 333 331 328 327 329 333 333 335 338 339 339 340 335 331 331 333 332 331 328 327 331 330 329 329 333 335 333 333 333 332 331 330 328
313 309 309 314 314 312 313 313 313 312 314 315 318 324 327 330 331 328 325 324 325 329 331 333 336 338 337 336 337 336 334 336 336 334 333 332 331 330 329 326 328 331 330 332 334 331 329 326 325
310 306 313 312 313 312 313 310 312 312 311 316 315 320 325 328 329 327 327 326 324 328 331 331 333 335 336 334 334 334 335 334 335 334 333 333 330 330 329 328 328 331 323 327 330 329 326 328 327
305 309 311 314 313 312 310 313 311 312 314 316 317 319 325 325 326 327 327 327 327 325 329 331 331 332 333 333 331 332 332 333 332 334 333 331 331 328 328 327 327 330 329 329 328 327 328 327 327
307 305 311 312 313 313 314 312 313 314 316 318 317 315 319 324 325 328 329 329 329 325 327 330 331 329 331 332 331 331 331 331 332 333 333 333 330 329 328 327 327 326 326 327 327 326 325 324 324
309 307 307 312 313 314 312 313 315 317 321 320 320 319 319 320 322 325 328 329 329 328 327 329 330 330 330 331 330 331 331 331 332 332 332 332 331 330 328 326 326 325 325 326 325 324 324 324 324
311 305 307 309 310 310 313 307 311 317 320 319 320 321 320 321 322 322 326 328 330 330 330 329 330 330 329 329 330 331 331 330 331 331 332 330 330 327 327 325 324 324 326 326 326 325 324 323 324
305 304 297 303 307 311 310 298 306 312 314 314 316 319 321 323 323 324 326 327 331 331 331 332 331 330 330 330 330 330 331 331 331 331 331 330 329 327 327 326 325 325 325 326 325 324 322 322 322
302 295 298 299 307 306 306 301 306 309 310 311 313 315 317 320 322 324 327 327 329 330 331 332 332 331 331 330 330 330 331 331 330 331 330 330 329 328 326 325 325 325 324 324 324 324 323 322 322
294 295 297 297 304 304 302 302 307 309 310 310 311 313 315 317 319 322 324 327 329 330 331 332 333 333 332 331 330 330 330 330 331 331 330 330 329 329 327 326 326 324 323 322 324 323 324 323 322
298 296 295 299 303 300 300 300 303 307 308 307 309 310 312 313 317 319 321 322 326 329 330 330 331 333 333 331 329 328 326 328 329 331 331 330 330 329 328 327 327 327 323 322 323 324 322 322 323
298 295 293 297 301 300 298 296 300 302 303 306 307 308 309 311 313 316 318 321 321 323 328 329 330 331 332 333 332 330 329 329 330 330 330 330 329 329 327 328 328 328 326 324 324 324 321 322 323
295 294 294 293 297 299 296 293 295 299 302 304 305 307 308 309 310 312 314 314 318 319 324 327 330 331 332 333 333 332 331 330 328 328 328 329 329 329 328 328 328 328 327 325 325 324 322 319 322
291 298 296 294 293 287 295 284 293 296 297 299 301 303 305 307 309 310 311 312 314 318 320 324 327 330 331 333 332 330 328 326 327 327 328 328 329 328 328 327 327 327 327 326 325 326 324 322 319
293 297 295 293 291 290 290 287 291 296 294 296 300 301 303 305 307 308 309 311 313 318 319 321 322 326 331 332 332 330 329 330 330 329 328 328 328 328 328 327 327 326 326 326 326 325 324 324 322
298 295 293 293 291 283 288 287 287 291 294 297 299 301 303 304 306 308 310 311 312 317 320 321 319 320 325 330 331 331 329 329 328 328 327 327 327 327 327 327 327 326 326 326 325 325 325 323 323
295 290 283 281 281 280 289 286 289 294 297 297 298 300 303 304 305 306 308 310 312 314 317 318 318 317 319 323 328 330 330 329 328 328 328 326 326 326 326 326 326 325 325 325 326 325 324 323 322
292 290 283 277 279 282 289 283 288 297 299 300 301 301 304 304 305 306 307 309 310 312 314 314 315 316 317 317 321 326 330 330 329 329 328 328 327 327 328 326 326 326 325 325 326 326 325 324 323
290 287 292 285 284 281 285 289 294 297 297 299 300 301 302 302 303 304 306 307 307 308 310 312 313 314 315 316 316 319 324 328 328 329 329 328 329 328 328 327 326 326 326 326 325 325 324 324 323
292 294 285 287 277 276 282 284 286 292 294 297 297 298 300 301 302 303 304 306 307 309 310 311 312 311 312 313 315 315 318 323 327 328 327 328 329 329 328 327 326 326 326 326 325 325 325 323 323
288 287 289 288 285 279 278 282 293 293 295 295 297 298 300 300 300 302 304 306 307 308 309 309 309 309 310 311 312 313 314 317 322 326 327 328 328 329 328 327 325 324 324 325 324 323 323 321 321
292 289 289 283 281 284 283 283 295 296 296 297 297 297 299 300 301 303 304 305 306 307 308 309 309 309 310 308 308 309 310 313 317 322 325 327 327 328 328 327 325 322 322 322 322 321 321 320 319
Wind_Speed
17 13 7 6 6 5 5 6 3 6 4 5 3 3 8 4 9 6 7 7 14 12 14 11 8 11 13 13 14 13 12 13 12 14 13 14 12 14 12 16 14 12 16 16 16 16 15 15 16
15 13 6 4 5 3 8 5 4 6 6 3 3 3 3 8 6 8 10 8 13 11 13 12 9 11 12 13 13 12 12 12 12 12 12 12 12 13 11 13 13 13 15 17 15 15 15 15 15
15 8 6 4 3 5 5 4 7 7 5 3 3 3 4 5 6 10 10 12 13 11 11 12 10 11 12 12 12 12 11 11 11 12 11 11 10 11 9 11 13 13 15 15 14 14 14 14 14
7 4 5 7 1 3 4 5 8 9 4 2 2 3 4 5 4 6 13 13 12 11 10 12 9 11 11 11 12 12 11 12 11 11 10 9 9 6 9 12 13 12 14 13 13 13 14 14 14
5 4 5 5 1 4 3 3 7 8 8 6 5 5 3 5 6 11 15 13 12 12 11 12 9 10 10 11 12 11 12 11 11 11 10 9 9 5 7 8 11 14 12 11 12 12 13 13 13
6 3 6 6 5 3 2 2 8 8 4 6 4 2 6 8 11 11 13 13 12 11 12 12 10 8 9 10 10 10 11 12 13 11 9 9 7 6 3 7 11 13 12 10 11 11 11 12 12
9 6 10 5 2 4 2 4 8 7 7 4 2 2 6 9 10 11 11 11 11 11 10 11 12 11 9 9 9 9 10 11 13 14 9 8 8 7 4 4 7 9 8 9 10 10 10 10 10
6 5 10 6 5 5 5 6 1 5 5 4 0 1 6 11 14 12 11 11 11 10 10 11 9 12 11 9 6 7 7 9 11 12 9 7 7 9 5 4 6 8 8 8 9 9 9 9 8
3 6 9 10 6 4 6 7 2 2 7 5 4 3 5 15 14 13 13 12 11 11 11 10 10 10 9 9 8 5 6 7 11 10 10 8 7 8 9 5 7 8 7 6 9 9 9 8 7
8 10 12 3 5 5 6 7 6 6 7 8 7 6 6 14 14 14 14 13 14 13 14 12 13 12 8 8 11 10 9 8 8 8 10 8 7 6 6 6 5 8 7 5 8 8 8 8 6
8 16 10 3 4 5 4 6 2 7 6 9 4 13 11 13 13 14 15 14 15 15 12 14 13 13 13 9 7 6 6 6 8 9 9 7 6 5 5 5 5 6 7 6 7 6 6 5 3
10 14 11 2 1 4 7 4 7 10 9 7 6 4 11 13 14 15 15 15 14 16 17 15 15 13 13 8 8 8 7 7 6 9 9 7 6 7 6 5 7 6 6 6 6 5 4 5 4
13 16 6 12 6 6 4 11 10 13 12 10 4 3 7 11 13 13 14 14 14 15 16 17 17 16 13 13 9 9 8 8 8 8 11 9 8 7 6 6 6 6 7 6 6 6 5 5 5
2 14 13 8 12 8 9 15 11 12 16 16 15 12 11 12 13 13 14 14 14 14 16 16 17 16 15 14 13 9 9 9 9 8 9 11 8 7 7 7 7 7 7 7 6 6 6 5 5
4 9 12 13 15 14 13 20 21 22 17 15 14 13 12 12 12 14 13 14 15 15 15 17 18 17 16 16 13 10 9 10 9 9 12 13 11 8 9 7 7 7 7 8 6 7 6 6 5
6 10 12 11 16 10 9 18 17 20 20 23 21 18 18 17 16 15 13 14 15 16 17 17 13 17 17 15 13 10 10 10 10 10 10 14 13 12 9 7 7 8 7 7 7 7 7 6 6
8 11 17 14 6 9 13 12 14 17 8 14 16 16 15 15 15 14 14 15 16 17 17 17 17 18 18 16 12 12 13 11 10 10 10 14 15 14 10 8 8 9 7 7 7 7 7 7 6
11 15 15 16 8 9 17 19 16 17 15 14 14 14 13 13 14 14 15 16 16 16 16 17 16 19 17 13 12 10 10 10 10 11 11 15 13 15 13 10 10 9 8 8 7 9 7 7 7
4 11 14 13 10 8 15 21 20 19 20 18 18 18 18 18 19 17 15 13 14 16 17 19 19 18 14 13 13 12 13 12 12 11 16 16 14 17 15 11 12 11 10 10 10 9 10 7 6
16 14 14 12 8 11 19 24 22 21 22 23 23 23 22 22 21 18 18 16 16 16 17 18 18 17 16 12 13 12 11 11 11 11 13 16 17 17 16 15 13 14 11 13 12 12 8 8 8
17 18 15 15 14 16 22 26 25 23 26 26 25 26 24 23 21 18 16 16 14 16 16 15 16 16 17 18 11 11 10 10 11 13 13 16 18 18 18 18 14 15 13 12 13 13 14 9 9
17 15 14 13 9 8 4 11 17 17 14 15 14 15 17 16 16 14 14 13 13 10 12 13 15 15 15 17 15 18 14 14 15 13 13 14 19 19 19 18 18 16 13 14 14 13 13 12 10
13 3 8 10 12 15 16 13 6 11 14 15 13 14 14 11 10 10 9 9 10 9 10 10 13 15 15 16 19 16 18 13 12 11 16 17 16 20 20 20 20 17 14 16 16 16 16 12 10
5 7 3 4 6 10 15 16 11 15 15 12 7 7 7 6 5 6 8 9 10 8 8 9 13 15 14 16 19 21 21 19 15 15 13 13 14 15 20 21 19 19 17 17 16 16 17 15 13
14 13 4 5 6 11 6 14 16 5 6 3 6 6 3 4 6 9 11 10 9 8 8 9 12 14 14 15 18 21 23 23 22 20 15 16 14 14 19 23 20 18 20 18 16 17 16 17 14
23 18 6 8 10 8 11 14 7 4 6 5 9 9 3 7 8 8 8 8 9 10 10 11 11 12 14 15 17 18 22 15 17 19 16 15 15 16 19 20 21 22 21 19 18 14 14 16 15
16 23 16 9 3 5 10 16 15 14 11 4 7 8 7 6 7 7 9 11 14 15 14 13 13 12 13 16 16 17 18 22 19 23 20 17 18 15 19 21 22 22 21 21 20 15 17 16 16
15 10 12 10 7 10 12 19 14 1 3 9 8 8 6 8 10 11 13 13 13 14 13 14 15 16 17 16 15 15 18 20 21 20 22 21 20 20 19 20 21 22 21 20 21 17 17 17 14
14 14 13 13 13 7 12 15 9 3 6 3 2 6 10 12 13 16 15 13 13 15 15 15 16 18 17 14 14 15 16 18 20 20 21 21 21 21 21 21 21 22 22 21 20 20 19 19 17
21 19 23 10 10 14 17 28 4 3 11 11 11 9 12 14 17 16 15 17 17 16 16 16 16 17 14 13 15 16 17 17 20 21 22 21 22 22 22 21 21 21 22 21 21 21 19 20 19
Wind_Direction
314 321 302 250 243 246 84 94 68 105 144 69 97 319 14 5 3 33 144 113 128 137 122 143 123 123 116 116 113 110 108 106 107 108 108 110 100 99 93 102 100 97 102 95 91 87 87 88 86
317 325 247 279 268 287 87 115 113 81 69 123 140 216 225 77 65 105 149 149 142 142 136 138 128 128 124 123 119 117 114 114 113 104 106 109 113 102 96 105 103 97 98 101 98 91 91 91 90
310 293 277 288 284 46 71 125 109 108 123 175 171 287 356 64 84 139 102 152 143 147 130 120 137 136 133 136 128 124 120 116 113 116 110 110 112 108 103 109 105 105 102 101 100 96 97 95 93
322 237 222 260 142 99 83 114 129 141 154 188 349 154 124 49 112 121 135 148 150 145 135 129 145 141 140 141 134 132 128 119 114 111 115 114 119 101 98 102 109 105 96 100 101 100 101 98 93
258 250 265 268 184 116 115 95 165 168 139 152 195 103 91 126 121 128 148 153 152 154 137 148 150 145 138 139 141 141 136 132 121 121 125 115 123 115 86 88 104 107 106 106 108 106 107 104 101
277 264 250 233 171 138 162 168 188 177 138 112 204 218 86 125 152 151 156 158 156 158 148 142 145 143 140 137 135 146 144 144 133 124 124 123 116 123 69 87 101 113 111 110 112 107 107 106 104
274 271 272 306 264 229 152 163 200 189 172 188 20 270 92 160 146 158 163 158 159 155 169 155 164 158 145 148 145 143 160 154 143 135 137 135 139 127 118 51 92 97 122 114 115 113 110 108 105
279 270 263 239 242 244 131 173 242 215 191 82 264 250 125 146 147 161 163 161 166 162 176 175 166 171 171 162 156 147 147 158 139 136 128 119 120 152 106 113 109 121 131 133 129 123 118 116 110
273 254 248 243 232 240 141 199 153 2 258 205 165 2 81 130 148 165 171 166 176 174 181 183 169 178 181 169 163 159 140 145 130 133 131 154 173 177 164 101 138 134 129 143 139 129 123 117 108
234 243 254 318 268 274 173 222 158 225 219 223 193 127 138 152 167 178 185 183 184 189 186 185 185 185 175 191 158 190 175 176 158 165 171 197 168 172 197 128 130 129 128 118 144 136 149 190 161
220 247 258 179 268 283 244 222 223 235 233 256 235 183 175 179 185 194 200 202 193 187 197 194 192 192 192 194 183 198 181 198 179 182 198 199 181 160 173 151 169 169 176 169 166 168 200 206 204
253 246 267 275 249 267 242 296 247 240 250 55 19 6 176 197 202 208 209 211 200 193 198 196 196 196 196 195 198 197 196 200 196 183 196 194 194 183 191 179 180 182 186 182 187 188 209 204 219
241 259 230 256 237 255 291 255 265 266 247 263 237 216 216 217 220 220 219 218 211 206 200 202 198 194 193 199 194 200 202 200 198 198 190 198 199 190 185 187 191 187 191 189 199 200 194 210 210
346 250 250 237 250 238 252 259 253 249 235 248 255 241 239 242 229 224 222 219 215 213 209 203 207 203 197 197 197 196 196 197 204 199 198 208 202 193 194 189 194 195 189 194 197 203 201 208 201
246 255 242 246 244 247 266 259 243 256 269 254 251 243 230 238 238 228 224 219 218 216 214 210 204 206 206 205 205 200 197 202 202 199 200 200 208 191 195 194 197 199 196 199 205 206 213 207 205
233 237 249 235 213 216 221 257 248 255 240 252 254 246 257 238 235 234 225 223 217 218 214 212 203 206 210 208 207 203 203 201 202 198 198 199 201 206 198 197 200 199 195 198 200 197 204 211 207
218 247 228 245 198 245 225 265 249 257 279 271 255 260 250 245 238 236 235 222 222 219 216 215 207 209 209 210 210 211 209 208 204 199 197 195 202 201 197 202 201 196 197 201 206 205 208 202 210
235 232 257 254 181 230 250 254 260 273 272 261 263 265 261 255 248 247 234 234 227 221 220 216 211 209 210 207 213 212 212 211 213 205 200 201 199 198 201 197 201 197 199 204 205 208 203 222 205
288 291 257 250 252 293 261 264 264 260 261 264 258 258 257 252 250 250 245 244 236 231 222 219 217 211 203 203 203 208 210 207 211 212 205 202 200 197 199 203 198 193 199 202 203 207 208 206 220
248 257 257 260 272 267 280 276 275 266 257 254 254 253 250 250 250 250 249 242 241 240 231 230 225 219 212 214 211 210 209 212 212 213 210 208 207 202 199 198 199 197 198 202 203 201 206 207 198
233 238 250 264 282 284 281 282 265 252 237 247 249 252 254 257 260 258 256 255 245 244 240 240 234 228 219 217 215 220 219 217 215 212 213 211 209 206 203 201 202 198 198 201 201 198 202 198 202
232 225 247 264 283 264 115 291 287 284 241 232 244 250 250 253 258 265 270 274 274 268 260 243 248 235 229 219 216 217 219 216 220 212 213 210 211 208 205 207 205 202 200 202 201 200 200 205 195
248 248 229 261 265 280 268 271 253 234 247 248 250 248 251 253 257 268 276 275 273 262 265 248 249 247 229 223 221 220 224 230 230 220 215 212 210 212 208 205 206 206 204 208 202 198 200 202 207
174 164 186 248 263 257 234 236 257 245 241 241 258 223 227 239 251 271 291 293 283 280 269 255 252 254 244 232 227 229 231 226 226 221 218 215 211 206 211 211 208 206 206 206 207 201 203 203 203
190 174 176 216 209 250 229 217 247 302 308 229 261 211 223 303 261 280 293 298 308 303 283 270 258 253 257 250 235 231 232 235 233 232 221 212 213 208 209 207 207 208 208 207 204 205 204 204 204
201 191 204 226 224 261 179 237 251 178 307 277 229 260 312 296 291 294 305 317 314 303 282 275 264 259 258 255 248 238 234 234 239 236 233 227 219 213 209 209 208 210 208 206 205 205 206 204 208
197 220 225 289 220 275 246 253 247 241 207 234 262 277 290 255 306 329 318 292 288 292 282 278 275 268 257 257 255 248 243 235 234 237 234 232 227 217 213 208 207 209 210 207 204 205 206 205 204
236 190 204 219 234 242 247 261 248 153 215 189 228 269 321 314 308 301 282 286 290 289 284 273 267 269 274 270 261 255 250 244 239 237 237 232 232 221 213 207 207 207 208 208 206 205 206 205 209
204 220 218 218 224 255 274 257 266 251 74 103 61 276 299 320 302 292 301 296 291 287 284 274 273 273 275 270 267 264 260 253 247 239 238 238 232 226 221 212 204 205 205 205 207 209 207 207 206
218 215 211 214 207 228 256 267 238 310 314 298 286 297 310 293 294 299 300 302 302 295 290 285 276 268 268 271 275 268 266 257 249 243 237 232 233 227 223 215 209 204 207 205 207 206 205 206 206